Location: De Wetering
(52.7626°N, 5.9922°E)
Time: 22:45:34
(UTC+00:00)

Daily predictions for brighter satellites

Satellite Brightness Start Highest point End
(mag) Time Altitude Azimuth Time Altitude Azimuth Time Altitude Azimuth
Cosmos 1844 Rocket 4.2 15:55:32 10° NNW 15:59:13 17° NNE 16:02:54 10° ENE
Cosmos 2219 4.0 15:54:51 10° NNW 15:59:55 30° NE 16:04:57 10° ESE
H-2A R/B 4.3 15:57:20 10° N 16:00:17 22° WNW 16:03:10 10° WSW
ATLAS CENTAUR R/B 3.7 15:59:34 10° WNW 16:02:12 23° WSW 16:04:45 10° S
Cosmos 1980 Rocket 3.9 16:00:55 10° SE 16:03:52 15° E 16:06:49 10° ENE
CORIOLIS 4.5 15:59:20 10° SE 16:04:21 44° ENE 16:09:25 10° N
Cosmos 1634 Rocket 4.0 15:59:55 10° S 16:06:06 87° E 16:12:18 10° N
NOSS 3-2 (A) 3.3 16:01:10 10° SW 16:06:19 87° SE 16:12:39 10° NE
Cosmos 2263 Rocket 2.6 16:03:15 10° NNW 16:08:38 42° NE 16:14:01 10° ESE
NOSS 3-2 (C) 3.6 16:05:01 10° SSW 16:09:52 46° ESE 16:15:38 10° NE
Cosmos 1867 3.7 16:05:00 10° NW 16:10:30 85° SW 16:15:57 10° SE
SL-08 ROCKET BODY 4.4 16:06:32 10° N 16:12:32 82° E 16:18:35 10° SSE
ARIANE 5 R/B 3.0 16:09:43 10° SE 16:14:26 39° ENE 16:19:13 10° N
Cosmos 2279 Rocket 4.0 16:08:39 10° S 16:14:49 73° E 16:21:04 10° NNE
Cosmos 1825 Rocket 4.1 16:12:36 10° N 16:16:39 36° ENE 16:20:39 10° SE
Iridium 51 4.2 16:15:33 10° SSW 16:18:41 65° W 16:21:54 10° N
Cosmos 1943 Rocket 4.2 16:16:42 10° NNW 16:18:43 12° N 16:20:45 10° NNE
Cosmos 1758 Rocket 3.8 16:16:45 10° NNW 16:21:04 74° W 16:25:19 10° S
Meteor 1-25 Rocket 4.4 16:15:29 10° N 16:21:14 57° ENE 16:26:54 10° SSE
Cosmos 1076 Rocket 4.3 16:19:57 10° N 16:23:45 29° ENE 16:27:33 10° SE
Cosmos 1655 Rocket 4.4 16:18:20 10° N 16:24:11 40° ENE 16:30:00 10° SE
Lacrosse 4 Rocket 3.0 16:21:03 10° W 16:24:24 24° NW 16:27:42 10° NNE
Cosmos 2098 Rocket 3.3 16:19:58 10° S 16:24:24 72° E 16:29:37 10° NNE
USA 290 3.9 16:21:42 10° NW 16:24:46 39° WSW 16:27:50 10° S
SAR-Lupe-4 4.2 16:23:44 10° SE 16:26:57 34° ENE 16:30:12 10° N
Cosmos 1782 2.5 16:23:45 10° S 16:27:21 87° WNW 16:30:58 10° N
Cosmos 1933 3.9 16:24:15 10° SSE 16:27:42 33° E 16:31:10 10° NNE
Cosmos 2227 Rocket 2.2 16:23:14 10° NNW 16:28:55 80° ENE 16:34:35 10° SE
Meteor 1-28 Rocket 3.1 16:25:53 10° NNE 16:29:10 50° E 16:32:25 10° S
Cosmos 44 Rocket 4.5 16:25:08 10° NW 16:29:29 27° NNE 16:33:16 13° ENE
CBERS-1 4.2 16:28:13 10° SSE 16:33:21 81° WSW 16:38:30 10° NNW
Cosmos 2369 Rocket 4.0 16:29:04 10° W 16:33:24 22° NNW 16:37:46 10° NNE
SPOT 1/Viking Rocket 4.2 16:33:42 10° ESE 16:38:18 33° ENE 16:42:55 10° N
SAR-Lupe-1 4.5 16:36:11 10° SE 16:39:34 40° ENE 16:42:59 10° N
SJ-12 4.0 16:36:11 10° SE 16:39:47 45° ENE 16:43:25 10° N
CENTAUR R/B 3.3 16:35:48 10° W 16:41:48 48° NNW 16:48:30 13° NE
Cosmos 2180 Rocket 4.4 16:35:42 10° S 16:41:49 81° E 16:48:02 10° NNE
Cosmos 1697 Rocket 2.9 16:37:08 10° S 16:42:33 53° ESE 16:47:33 12° NE
Cosmos 2360 4.3 16:38:26 10° SSW 16:44:10 84° WNW 16:49:58 10° NNE
Cosmos 1538 Rocket 4.1 16:39:42 10° NNW 16:44:56 57° ENE 16:50:10 10° SE
CZ-2D R/B 2.9 16:42:06 10° SE 16:45:07 46° ENE 16:48:10 10° N
NOSS 3 (A) 3.9 16:44:01 10° NW 16:46:15 87° NE 16:49:07 10° SE
NOSS 2-3 (C) 4.4 16:43:35 10° S 16:46:23 23° ESE 16:47:48 18° E
Cosmos 2058 Rocket 4.3 16:44:04 10° SE 16:47:30 22° E 16:49:15 18° NE
Cosmos 2278 Rocket 4.2 16:45:53 10° NNW 16:48:04 12° N 16:50:14 10° NNE
Cosmos 2266 Rocket 4.0 16:41:54 10° N 16:48:06 88° WSW 16:54:09 10° S
Cosmos 1656 4.2 16:46:26 10° SW 16:52:01 60° NW 16:57:42 10° NNE
Cosmos 1606 Rocket 3.6 16:49:18 10° S 16:53:38 58° E 16:58:01 10° NNE
Cosmos 1503 Rocket 4.0 16:50:50 10° SSW 16:56:04 90° SE 17:01:11 11° NNE
Lacrosse 5 rocket 1.7 16:53:33 10° WNW 16:57:06 41° N 16:58:51 24° NE
UNK 3.7 16:53:27 10° NNE 16:58:03 67° ESE 17:02:34 10° S
CZ-4C R/B 4.0 16:52:11 10° NW 16:58:50 50° SW 17:07:00 10° SSE
Cosmos 1484 Rocket 4.4 16:57:20 10° SSW 17:00:32 33° W 17:03:43 10° NNW
Cosmos 1743 4.5 16:57:41 10° NNW 17:00:32 28° W 17:03:21 10° SSW
Thor Agena Rocket 4.0 16:56:32 10° S 17:01:41 66° WSW 17:06:49 10° NNW
IRS-P3 4.0 16:59:02 10° SSE 17:04:18 68° ENE 17:09:36 10° NNW
NOSS 2-3 (D) 3.7 17:02:08 10° SSW 17:05:35 40° SE 17:07:02 28° ENE
NOSS 2-3 (E) 3.6 17:02:45 10° SSW 17:06:14 44° SE 17:07:43 28° ENE
Cosmos 1354 Rocket 3.9 17:01:50 10° SSW 17:07:05 81° ESE 17:11:39 14° NNE
Resurs 1-3 4.1 17:04:32 10° SE 17:08:25 34° ENE 17:12:18 10° N
Cosmos 2151 4.4 17:04:43 10° NNW 17:08:37 40° W 17:12:31 10° SSW
NOSS 2-2 (D) 4.0 17:06:00 10° W 17:08:48 30° NNW 17:10:10 21° NNE
CZ-4 R/B 4.5 17:05:12 10° SE 17:08:59 47° ENE 17:12:48 10° N
Cosmos 1777 Rocket 4.4 17:04:09 10° SW 17:09:22 65° WNW 17:14:25 11° NNE
Cosmos-2242 3.7 17:06:49 10° SSE 17:10:32 30° E 17:11:24 28° ENE
Cosmos 1844 4.5 17:05:52 10° NNW 17:10:48 30° NE 17:12:43 24° ENE
USA 238 DEB 3.9 17:05:21 10° SSW 17:11:05 44° ESE 17:14:48 23° ENE
USA 238 4.0 17:05:28 10° S 17:11:13 43° ESE 17:14:54 23° ENE
MOS 1 Rocket 3.4 17:06:15 10° SSE 17:11:16 80° ENE 17:16:35 10° NNW
Cosmos 1898 Rocket 4.2 17:10:21 10° SSE 17:14:54 33° ESE 17:16:31 27° ENE
Gbstr 26 Del rocket 3.2 17:11:07 10° SW 17:15:02 47° SSE 17:16:29 30° ESE
Spot 4 Rocket 4.2 17:10:14 10° SE 17:15:05 46° ENE 17:19:58 10° N
Cosmos 1726 Rocket 3.6 17:11:34 10° S 17:16:10 72° E 17:20:37 11° NNE
USA 215 3.4 17:12:08 22° ENE 17:16:29 63° N 17:22:57 10° W
ERS-1 4.5 17:12:22 10° SSE 17:17:22 85° WSW 17:22:21 10° NNW
Cosmos 2082 3.7 17:11:45 10° NNW 17:17:28 66° NE 17:23:10 10° SE
Cosmos 372 Rocket 4.4 17:12:42 10° S 17:17:30 41° ESE 17:19:40 27° NE
AQUARIUS 4.1 17:14:27 10° SSE 17:18:51 86° WSW 17:23:18 10° NNW
Cosmos 1805 3.0 17:16:33 10° N 17:19:50 45° ENE 17:23:04 10° SSE
SMAP 3.9 17:15:43 10° S 17:20:16 52° W 17:24:51 10° NNW
IRAS Rocket 4.4 17:16:12 10° SE 17:21:24 46° ENE 17:26:37 10° N
GEOS 3 Rocket 3.8 17:19:10 25° NE 17:22:18 63° SE 17:27:37 10° SSW
Landsat 7 4.3 17:19:46 10° S 17:24:22 60° W 17:29:00 10° NNW
Cosmos 923 Rocket 4.0 17:21:19 10° NNW 17:26:28 57° ENE 17:31:33 10° SE
YAOGAN 1 2.6 17:22:56 10° SE 17:27:02 49° ENE 17:31:10 10° N
Cosmos 1745 Rocket 4.4 17:24:12 10° N 17:29:51 35° ENE 17:34:25 15° SE
Cosmos 1937 Rocket 4.1 17:25:53 10° SSE 17:30:27 33° ESE 17:30:51 33° E
SL-16 R/B 4.2 17:28:52 10° SE 17:29:26 12° SE 17:29:26 12° SE
Meteor 2-20 Rocket 4.4 17:27:32 10° S 17:33:32 56° E 17:39:17 10° NNE
SL-16 R/B 3.4 17:27:59 10° N 17:33:55 48° WNW 17:39:48 10° SW
Cosmos 990 Rocket 4.1 17:29:23 10° SSW 17:34:30 75° WNW 17:38:14 19° NNE
Cosmos 1461 3.7 17:31:06 10° WSW 17:34:51 42° NW 17:36:23 28° NNE
NOSS 2-2 (E) 4.3 17:32:20 10° W 17:34:56 25° NNW 17:35:27 24° N
CZ-2D R/B 3.3 17:30:59 10° SSE 17:35:07 68° ENE 17:39:13 10° N
Cosmos 1244 Rocket 4.4 17:29:44 10° N 17:36:02 70° ENE 17:42:13 10° SSE
SKYMED 2 3.7 17:35:14 41° NE 17:36:19 51° E 17:40:33 10° S
COSMOS 2455 3.9 17:34:19 10° SSE 17:38:36 25° ESE 17:38:36 25° ESE
Meteor 2-2 Rocket 4.3 17:33:56 10° S 17:39:24 54° E 17:42:46 23° NNE
Okean 1 4.2 17:36:19 10° SSE 17:38:21 29° SSE 17:38:21 29° SSE
Cosmos 494 Rocket 4.3 17:37:10 10° NNW 17:42:12 43° NE 17:42:50 41° ENE
Cosmos 1844 Rocket 2.9 17:39:04 10° NNW 17:44:33 47° NE 17:45:49 40° E
Cosmos 2219 3.4 17:38:51 10° NW 17:44:35 74° WSW 17:50:19 10° SSE
Cosmos 1953 Rocket 4.3 17:42:13 10° NNW 17:46:35 54° W 17:50:55 10° S
Cosmos 1980 Rocket 2.1 17:41:15 10° SSW 17:46:53 74° ESE 17:49:21 35° NE
SL-08 R/B 4.4 17:40:54 10° N 17:47:14 71° ENE 17:53:34 10° SSE
Aureole 1 Rocket 3.4 17:44:03 10° SSW 17:48:48 78° ESE 17:51:47 30° NNE
Meteor 1-26 Rocket 4.0 17:44:39 10° S 17:49:59 65° E 17:52:49 28° NNE
Cosmos 1386 Rocket 4.4 17:45:03 10° N 17:51:04 58° ENE 17:57:10 10° SSE
PSLV R/B 3.2 17:49:58 42° SE 17:51:13 71° ENE 17:55:17 10° N
Cosmos 2263 Rocket 3.2 17:47:14 10° NW 17:52:39 47° WSW 17:58:03 10° S
ARIANE 5 R/B 4.0 17:48:45 10° SSW 17:53:29 38° W 17:58:18 10° NNW
SL-19 R/B 4.1 17:48:41 10° SSE 17:54:10 79° ENE 17:59:59 10° NNW
COSMO-SKYMED 1 3.4 17:59:08 35° SSE 17:59:08 35° SSE 18:01:42 10° S
NOSS 3-2 (A) 4.3 17:52:34 10° W 17:57:48 38° NNW 18:00:32 27° NNE
Cosmos 1680 Rocket 3.3 17:52:55 10° NNW 17:58:10 73° ENE 18:00:24 35° SE
NOSS 3-2 (C) 3.8 17:55:21 10° WSW 18:00:37 53° NNW 18:03:20 32° NNE
NOAA 6 3.8 17:58:25 10° SSE 18:03:29 77° ENE 18:08:36 10° NNW
Lacrosse 4 Rocket 3.9 18:02:59 10° NNW 18:03:36 10° NNW 18:03:54 10° N
Cosmos 2369 3.7 17:58:57 10° SSW 18:04:34 61° ESE 18:05:20 55° E
Cosmos 1943 Rocket 4.1 18:01:58 10° NNW 18:04:10 14° N 18:04:10 14° N
Resurs 01 Rocket 3.7 18:11:53 16° N 18:11:53 16° N 18:12:45 10° N
Cosmos 44 Rocket 3.2 18:06:32 10° NW 18:11:41 74° NE 18:11:53 73° ENE
SPOT 1/Viking Rocket 4.5 18:12:29 10° S 18:17:30 48° W 18:22:33 10° NNW
Cosmos 2369 Rocket 4.4 18:17:23 10° NNW 18:19:45 12° N 18:20:47 12° N
Cosmos 2058 Rocket 3.8 18:20:40 10° SSW 18:25:02 51° WNW 18:26:26 37° NNW
Cosmos 1697 Rocket 3.9 18:21:32 10° WSW 18:26:44 37° NW 18:29:16 25° N
USA 281 4.1 18:28:12 31° NNE 18:28:12 31° NNE 18:32:42 10° NNW
CENTAUR R/B 3.7 18:27:40 10° WNW 18:34:06 38° N 18:35:36 35° NNE
Cosmos 2333 Rocket 4.5 18:29:17 10° S 18:29:35 11° SSE 18:29:35 11° SSE
Lacrosse 5 rocket 3.2 18:30:52 10° WNW 18:32:26 23° NW 18:32:26 23° NW
Cosmos 2278 Rocket 4.2 18:30:45 10° NNW 18:32:43 16° N 18:32:43 16° N
Meteor 1-14 Rocket 4.2 18:31:59 10° NNW 18:37:47 82° WSW 18:39:09 54° S
Cosmos 1844 4.0 18:49:50 10° NW 18:54:37 61° WNW 18:54:37 61° WNW
Cosmos 1898 Rocket 4.3 18:51:47 10° SW 18:56:45 47° WNW 18:56:45 47° WNW
USA 215 3.2 18:59:28 75° N 18:59:28 75° N 19:05:49 10° WNW
GEOS 3 Rocket 4.5 19:00:12 45° NNW 19:00:12 45° NNW 19:05:14 10° W
USA 238 DEB 3.8 18:55:37 10° WSW 19:01:50 61° NW 19:02:15 60° NNW
USA 238 3.8 18:55:42 10° WSW 19:01:57 62° NW 19:02:21 61° NNW
SL-16 R/B 4.1 19:09:47 10° SSW 19:11:20 19° SSW 19:11:20 19° SSW
COSMOS 2455 4.0 19:18:24 10° SW 19:21:46 35° SW 19:21:46 35° SW
Cosmos 1844 Rocket 3.9 19:23:07 10° NW 19:27:31 38° W 19:27:31 38° W
Cosmos 1980 Rocket 3.8 19:26:29 10° W 19:31:07 30° NW 19:31:07 30° NW
CENTAUR R/B 4.3 20:18:53 10° NW 20:22:41 32° NNW 20:22:41 32° NNW
